Location: Berbisdorf
(50.7638°N, 12.9442°E)
Time: 12:19:27
(UTC+00:00)

STARLINK-1317 - Pass Details

Date: 10 October 2020
Orbit: 549 x 550 km, 53.0° (Epoch: 27 October)

Event Time Altitude Azimuth Distance (km) Brightness Sun altitude
Exits shadow 03:37:12 39° 252° (WSW) 828 4.0 -17.5°
Maximum altitude 03:38:40 89° 340° (NNW) 555 3.5 -17.3°
Drops below altitude 10° 03:42:49 10° 72° (ENE) 1,826 7.6 -16.7°
Sets 03:45:04 0° 72° (ENE) 2,722 8.9 -16.3°
